TimeCDT,TemperatureF,Dew PointF,Humidity,Sea Level PressureIn,VisibilityMPH,Wind Direction,Wind SpeedMPH,Gust SpeedMPH,PrecipitationIn,Events,Conditions,WindDirDegrees,DateUTC
12:56 AM,70.0,69.1,97,29.92,-9999.0,South,4.6,-,N/A,,Unknown,170,2013-07-14 05:56:00
1:56 AM,69.1,68.0,96,29.91,-9999.0,South,5.8,-,N/A,,Unknown,170,2013-07-14 06:56:00
2:56 AM,69.1,68.0,96,29.91,-9999.0,Calm,Calm,-,N/A,,Unknown,0,2013-07-14 07:56:00
3:56 AM,69.1,68.0,96,29.91,-9999.0,Calm,Calm,-,N/A,,Unknown,0,2013-07-14 08:56:00
4:56 AM,69.1,68.0,96,29.92,-9999.0,Calm,Calm,-,N/A,,Unknown,0,2013-07-14 09:56:00
5:56 AM,69.1,68.0,96,29.92,-9999.0,South,3.5,-,N/A,,Unknown,190,2013-07-14 10:56:00
6:56 AM,70.0,69.1,97,29.95,-9999.0,SSE,4.6,-,N/A,,Unknown,160,2013-07-14 11:56:00
7:56 AM,70.0,68.0,93,29.97,-9999.0,SSE,11.5,18.4,N/A,,Unknown,150,2013-07-14 12:56:00
8:56 AM,71.1,70.0,96,29.99,-9999.0,SSW,6.9,17.3,0.11,,Unknown,200,2013-07-14 13:56:00
9:56 AM,71.1,70.0,96,29.98,-9999.0,North,3.5,-,0.11,,Unknown,10,2013-07-14 14:56:00
10:56 AM,72.0,71.1,97,30.00,-9999.0,ESE,3.5,-,0.01,,Unknown,120,2013-07-14 15:56:00
11:56 AM,72.0,71.1,97,30.01,-9999.0,SE,5.8,-,N/A,,Unknown,140,2013-07-14 16:56:00
12:56 PM,72.0,71.1,97,30.03,-9999.0,SE,5.8,-,N/A,,Unknown,130,2013-07-14 17:56:00
1:56 PM,73.0,71.1,93,30.04,-9999.0,East,3.5,-,N/A,,Unknown,100,2013-07-14 18:56:00
2:56 PM,72.0,70.0,93,30.05,-9999.0,ESE,9.2,-,N/A,,Unknown,120,2013-07-14 19:56:00
3:56 PM,71.1,70.0,96,30.06,-9999.0,East,6.9,-,0.01,,Unknown,90,2013-07-14 20:56:00
4:56 PM,71.1,70.0,96,30.07,-9999.0,ENE,8.1,-,0.02,,Unknown,70,2013-07-14 21:56:00
5:56 PM,70.0,69.1,97,30.07,-9999.0,East,11.5,-,0.01,,Unknown,90,2013-07-14 22:56:00
6:56 PM,70.0,69.1,97,30.07,-9999.0,East,6.9,-,N/A,,Unknown,90,2013-07-14 23:56:00
7:56 PM,70.0,69.1,97,30.08,-9999.0,East,5.8,-,N/A,,Unknown,100,2013-07-15 00:56:00
8:56 PM,70.0,69.1,97,30.09,-9999.0,East,5.8,-,N/A,,Unknown,100,2013-07-15 01:56:00
9:56 PM,70.0,69.1,97,30.11,-9999.0,ENE,4.6,-,N/A,,Unknown,70,2013-07-15 02:56:00
10:56 PM,70.0,69.1,97,30.12,-9999.0,ENE,4.6,-,N/A,,Unknown,60,2013-07-15 03:56:00
11:56 PM,69.1,69.1,100,30.13,-9999.0,East,4.6,-,N/A,,Unknown,100,2013-07-15 04:56:00